[[{"header":{"parameterUnit":"m.s-1","parameterCategory":1,"la1":30.2991,"la2":30.254,"lo1":-89.0895,"lo2":-89.0444,"dy":0.0017,"dx":0.0017,"nx":28,"ny":28,"refTime":"2025-11-27T03:00:00:Z","depth":0,"parameterNumber":2,"parameterNumberName":"U-component_of_WINDS"},"data":[0,0,0,0,0,0,0,0,0,0,0,0,0,0,0,0,0,0,0,0,0,0,0,0,0,0,0,0,0,0,0,0,0,0,0,0,0,0,0,0,0,0,0,0,0,0,0,0,0,0,0,0,0,0,0,0,0,0,0.7353,0.7353,0,0.7374,0.7374,0.7374,0.7391,0.7391,0.7391,0.7392,0.7413,0.7414,0.7414,0,0,0,0,0,0,0,0,0,0,0,0,0,0.7327,0.7328,0.7353,0.7353,0.7353,0.7374,0.7374,0.7374,0.7391,0.7391,0.7391,0.7392,0.7413,0.7413,0.7414,0,0,0,0,0,0,0,0,0,0,0,0,0,0.7342,0.7328,0.7352,0.7364,0.7365,0.7374,0.7374,0.7374,0.7391,0.7391,0.7392,0.7392,0.7413,0.7413,0.7414,0.7413,0,0,0.7416,0.7416,0,0,0,0,0,0,0,0,0.7341,0.7343,0.7362,0.7363,0.7365,0.738,0.7373,0.7387,0.7391,0.7381,0.7392,0.7392,0.7402,0.7403,0.7407,0.7414,0.7415,0.7416,0.7416,0.7417,0.7417,0,0,0,0,0,0,0,0.734,0.7342,0.7361,0.7362,0.7364,0.7368,0.7371,0.7376,0.739,0.7382,0.7383,0.7386,0.7403,0.7406,0.7407,0.7415,0.7416,0.7417,0.7417,0.7417,0.7424,0.7424,0,0,0,0,0,0,0.7338,0.7341,0.736,0.7362,0.7353,0.7369,0.7371,0.7375,0.739,0.7392,0.7385,0.7386,0.7405,0.7407,0.7408,0.7409,0.7417,0.7417,0.7418,0.7424,0.7424,0.7424,0,0,0,0,0,0,0.7337,0.7339,0.7359,0.7352,0.7355,0.7369,0.7373,0.7375,0.7379,0.7392,0.7395,0.7386,0.7405,0.7407,0.7412,0.741,0.7418,0.7418,0.7424,0.7424,0.7424,0.7409,0,0,0,0,0,0,0.7336,0.7339,0.7338,0.7352,0.7355,0.7362,0.7372,0.7375,0.738,0.7381,0.7394,0.7396,0.7406,0.7411,0.7413,0.7411,0.7419,0.7425,0.7424,0.7424,0.741,0.7408,0.7407,0,0,0,0,0,0.7335,0.7333,0.7338,0.734,0.7355,0.7362,0.7364,0.7375,0.7379,0.7379,0.7388,0.7396,0.741,0.7411,0.7413,0.7411,0.7425,0.7424,0.7424,0.741,0.7409,0.7407,0,0,0,0,0,0,0.7318,0.7335,0.7341,0.7342,0.7351,0.7365,0.7365,0.7372,0.7379,0.738,0.7394,0.7396,0.74,0.7406,0.7407,0.7412,0.7418,0.7418,0.7407,0.7406,0.7404,0.7403,0.7419,0,0,0,0,0,0.7314,0.7319,0.7333,0.7334,0.7338,0.7351,0.7354,0.7362,0.7371,0.7375,0.7384,0.7393,0.7399,0.7403,0.7409,0.7411,0.7415,0.7411,0.741,0.7408,0.7408,0.7411,0.7409,0.7422,0.7422,0.7422,0,0,0.7307,0.7317,0.7319,0.733,0.7338,0.7343,0.7353,0.7358,0.7361,0.7375,0.738,0.7388,0.7398,0.7402,0.7404,0.7407,0.7406,0.7408,0.7407,0.7407,0.741,0.7409,0.7408,0.7422,0.7422,0.7422,0,0,0.7296,0.7303,0.7305,0.7312,0.7324,0.7333,0.7333,0.7347,0.7352,0.7357,0.7368,0.7373,0.7384,0.7391,0.7396,0.739,0.7398,0.7392,0.7384,0.7387,0.7386,0.7385,0.7383,0.7382,0.7392,0.7392,0.7392,0,0.7285,0.7292,0.7305,0.7309,0.7314,0.7328,0.733,0.7336,0.7349,0.7353,0.7357,0.7371,0.7379,0.7385,0.7384,0.7387,0.7389,0.739,0.7385,0.7384,0.7384,0.7382,0.7381,0.7391,0.7391,0.7391,0.7391,0,0.7279,0.7284,0.7284,0.7296,0.7302,0.7305,0.7318,0.7322,0.733,0.7339,0.7345,0.7355,0.7365,0.7367,0.7374,0.7374,0.7376,0.7382,0.7389,0.7381,0.738,0.738,0.739,0.739,0.739,0.7391,0,0,0.7256,0.7276,0.7276,0.7283,0.7297,0.7301,0.7306,0.7315,0.7319,0.7328,0.7332,0.7341,0.7348,0.7354,0.7362,0.7364,0.736,0.7371,0.7371,0.7368,0.7361,0.7356,0.7355,0.7365,0.7365,0.7365,0.736,0,0.7247,0.7255,0.7267,0.7271,0.7276,0.729,0.7294,0.7304,0.7312,0.7319,0.7329,0.7335,0.7343,0.7347,0.7349,0.736,0.7358,0.736,0.7369,0.737,0.7366,0.7355,0.7349,0.7344,0.736,0.736,0.736,0,0.7237,0.7246,0.725,0.7266,0.7268,0.7272,0.7282,0.7288,0.73,0.7306,0.7313,0.7323,0.7329,0.7336,0.7345,0.7345,0.735,0.7356,0.7356,0.7357,0.7364,0.7355,0.7342,0.7342,0.7359,0.7359,0.7359,0,0.722,0.7233,0.7238,0.7243,0.7261,0.7263,0.727,0.7282,0.7288,0.7297,0.7301,0.7311,0.7317,0.7325,0.7337,0.7341,0.7345,0.7352,0.7351,0.735,0.735,0.735,0.7338,0.7354,0.7354,0.7354,0.7354,0,0.7208,0.7211,0.7231,0.7233,0.7237,0.7252,0.7255,0.7264,0.7275,0.728,0.7293,0.7298,0.7314,0.7321,0.7331,0.7338,0.734,0.7346,0.7348,0.7344,0.7343,0.7347,0.7348,0.7353,0.7353,0.7354,0.7354,0,0.7189,0.7203,0.7209,0.7226,0.723,0.7232,0.7247,0.7251,0.7261,0.7268,0.727,0.7286,0.7295,0.7309,0.7322,0.7329,0.7334,0.7338,0.733,0.7331,0.7329,0.7329,0.7319,0.7318,0.7334,0.7334,0.7334,0,0.7181,0.7183,0.7201,0.7205,0.7213,0.722,0.7226,0.7241,0.7247,0.7261,0.7264,0.7274,0.7283,0.7297,0.731,0.7321,0.7325,0.7321,0.7327,0.7323,0.7325,0.7325,0.7326,0.7319,0.7319,0.7319,0.7319,0,0.7164,0.7171,0.7179,0.719,0.7197,0.7207,0.7217,0.722,0.7237,0.7243,0.7253,0.726,0.7274,0.7285,0.7297,0.7306,0.7315,0.7317,0.7317,0.7313,0.7308,0.7311,0.7326,0.7317,0.7317,0.7317,0.7317,0.7317,0.715,0.7154,0.7167,0.7176,0.7185,0.7195,0.7199,0.7211,0.7219,0.7232,0.7241,0.725,0.7263,0.7281,0.729,0.7298,0.7302,0.7302,0.7302,0.7302,0.73,0.7307,0.73,0.73,0.73,0.73,0.73,0,0.7135,0.7144,0.7153,0.7167,0.7174,0.7183,0.7195,0.7201,0.7209,0.7221,0.723,0.7242,0.7252,0.7267,0.7279,0.7282,0.7287,0.7285,0.7285,0.7287,0.7296,0.7295,0.7281,0.7281,0.7281,0.7281,0.7281,0.7281,0.7127,0.7133,0.7142,0.7154,0.7164,0.7173,0.7179,0.7188,0.7198,0.7211,0.722,0.7229,0.7243,0.7256,0.7266,0.727,0.7274,0.7271,0.7276,0.7284,0.7286,0.7288,0.7286,0.7271,0.7271,0.7266,0.7266,0.7266]},{"header":{"parameterUnit":"m.s-1","parameterCategory":1,"la1":30.2991,"la2":30.254,"lo1":-89.0895,"lo2":-89.0444,"dy":0.0017,"dx":0.0017,"nx":28,"ny":28,"refTime":"2025-11-27T03:00:00:Z","depth":0,"parameterNumber":3,"parameterNumberName":"V-component_of_WINDS"},"data":[0,0,0,0,0,0,0,0,0,0,0,0,0,0,0,0,0,0,0,0,0,0,0,0,0,0,0,0,0,0,0,0,0,0,0,0,0,0,0,0,0,0,0,0,0,0,0,0,0,0,0,0,0,0,0,0,0,0,-6.7783,-6.7784,0,-6.7862,-6.7863,-6.7864,-6.7838,-6.7836,-6.7834,-6.7833,-6.7907,-6.791,-6.7913,0,0,0,0,0,0,0,0,0,0,0,0,0,-6.7606,-6.7609,-6.7783,-6.7784,-6.7785,-6.7862,-6.7863,-6.7864,-6.7838,-6.7836,-6.7834,-6.7832,-6.7905,-6.791,-6.7914,0,0,0,0,0,0,0,0,0,0,0,0,0,-6.7683,-6.761,-6.7783,-6.7782,-6.7782,-6.7861,-6.7863,-6.7864,-6.7838,-6.7836,-6.7833,-6.7831,-6.7904,-6.7909,-6.7914,-6.7998,0,0,-6.7931,-6.7933,0,0,0,0,0,0,0,0,-6.7679,-6.769,-6.7781,-6.7782,-6.7783,-6.7837,-6.7827,-6.7909,-6.7839,-6.7817,-6.7833,-6.783,-6.7885,-6.7892,-6.7912,-6.8001,-6.8004,-6.7931,-6.7934,-6.7937,-6.7938,0,0,0,0,0,0,0,-6.7674,-6.7686,-6.7814,-6.7782,-6.7783,-6.7775,-6.7784,-6.7843,-6.7864,-6.7818,-6.7817,-6.7827,-6.7885,-6.7907,-6.7913,-6.8005,-6.7931,-6.7936,-6.7939,-6.7941,-6.8169,-6.8172,0,0,0,0,0,0,-6.7668,-6.7682,-6.7811,-6.7816,-6.7724,-6.7781,-6.779,-6.7822,-6.7863,-6.7867,-6.7829,-6.7825,-6.7899,-6.7907,-6.7916,-6.8018,-6.7936,-6.7941,-6.7945,-6.8166,-6.817,-6.8173,0,0,0,0,0,0,-6.7665,-6.768,-6.7808,-6.7749,-6.7765,-6.7787,-6.7823,-6.7825,-6.7847,-6.7871,-6.7874,-6.7848,-6.7897,-6.7908,-6.7979,-6.802,-6.7944,-6.7949,-6.8163,-6.8167,-6.8171,-6.8221,0,0,0,0,0,0,-6.766,-6.7679,-6.7712,-6.775,-6.7768,-6.7871,-6.7826,-6.7829,-6.7857,-6.7853,-6.789,-6.7893,-6.7896,-6.7971,-6.7984,-6.8026,-6.7953,-6.8159,-6.8165,-6.817,-6.8215,-6.8226,-6.8235,0,0,0,0,0,-6.7654,-6.772,-6.7714,-6.7729,-6.781,-6.7873,-6.7883,-6.7888,-6.786,-6.7893,-6.7909,-6.7892,-6.8013,-6.7978,-6.7993,-6.8037,-6.8156,-6.8163,-6.8169,-6.8211,-6.8224,-6.8235,0,0,0,0,0,0,-6.7683,-6.7725,-6.7718,-6.78,-6.7834,-6.7869,-6.791,-6.7901,-6.7941,-6.7936,-6.7937,-6.7946,-6.8018,-6.8034,-6.7994,-6.812,-6.8081,-6.809,-6.8107,-6.812,-6.813,-6.8124,-6.7957,0,0,0,0,0,-6.77,-6.775,-6.7783,-6.7852,-6.787,-6.7888,-6.7915,-6.7916,-6.795,-6.7964,-6.7984,-6.8017,-6.8062,-6.8092,-6.8135,-6.8218,-6.8226,-6.8255,-6.8265,-6.8273,-6.8282,-6.8328,-6.8342,-6.8194,-6.8194,-6.8194,0,0,-6.7734,-6.7763,-6.7794,-6.7859,-6.7885,-6.7936,-6.7899,-6.7954,-6.7991,-6.7971,-6.804,-6.8056,-6.8092,-6.817,-6.8205,-6.8185,-6.8325,-6.8282,-6.8288,-6.8292,-6.8336,-6.835,-6.8363,-6.8198,-6.8197,-6.8197,0,0,-6.7821,-6.7849,-6.791,-6.7939,-6.798,-6.7992,-6.8007,-6.8045,-6.8056,-6.8125,-6.8112,-6.8155,-6.8233,-6.826,-6.8284,-6.8386,-6.8372,-6.84,-6.8451,-6.8497,-6.8509,-6.8519,-6.8556,-6.8569,-6.8408,-6.8408,-6.8408,0,-6.7857,-6.7936,-6.7942,-6.8,-6.8029,-6.8016,-6.8078,-6.8104,-6.8157,-6.8177,-6.8155,-6.8255,-6.8278,-6.8363,-6.8388,-6.8407,-6.8424,-6.8395,-6.8507,-6.8517,-6.8527,-6.8562,-6.8576,-6.8411,-6.8411,-6.8411,-6.841,0,-6.7978,-6.8033,-6.8077,-6.8132,-6.8166,-6.8225,-6.824,-6.8274,-6.8273,-6.8286,-6.8358,-6.8386,-6.8435,-6.8455,-6.8453,-6.854,-6.8527,-6.8506,-6.8466,-6.8544,-6.8577,-6.8591,-6.8416,-6.8415,-6.8414,-6.8413,0,0,-6.8084,-6.8146,-6.8162,-6.8188,-6.8234,-6.8276,-6.8334,-6.8386,-6.8415,-6.8452,-6.8501,-6.857,-6.8552,-6.8579,-6.858,-6.862,-6.87,-6.8594,-6.8595,-6.8613,-6.8799,-6.8815,-6.883,-6.8692,-6.8694,-6.8696,-6.8796,0,-6.8177,-6.8283,-6.8292,-6.8387,-6.8438,-6.8428,-6.848,-6.8513,-6.8528,-6.8572,-6.8588,-6.8637,-6.8609,-6.8626,-6.8665,-6.8682,-6.8737,-6.8675,-6.8736,-6.8739,-6.8728,-6.8847,-6.8863,-6.8956,-6.8809,-6.8811,-6.8813,0,-6.8298,-6.8343,-6.8444,-6.8486,-6.8508,-6.8554,-6.8603,-6.8646,-6.8684,-6.8692,-6.8725,-6.8721,-6.8781,-6.874,-6.8822,-6.8779,-6.8805,-6.8818,-6.8821,-6.8827,-6.878,-6.8856,-6.8986,-6.9,-6.8833,-6.8832,-6.883,0,-6.8366,-6.8452,-6.8524,-6.8546,-6.8597,-6.863,-6.8652,-6.8688,-6.872,-6.8762,-6.8782,-6.883,-6.8856,-6.8892,-6.8901,-6.887,-6.8984,-6.8943,-6.8992,-6.8992,-6.9015,-6.9014,-6.9151,-6.9032,-6.9032,-6.9032,-6.9031,0,-6.8468,-6.853,-6.8556,-6.86,-6.867,-6.868,-6.8748,-6.8768,-6.8801,-6.8848,-6.8841,-6.8885,-6.8895,-6.8941,-6.8948,-6.9016,-6.9027,-6.9035,-6.9036,-6.9035,-6.9034,-6.9052,-6.9045,-6.9035,-6.9035,-6.9034,-6.9033,0,-6.8556,-6.8576,-6.8654,-6.8697,-6.871,-6.8759,-6.8795,-6.8838,-6.8853,-6.8913,-6.8928,-6.8951,-6.9005,-6.9018,-6.9081,-6.9086,-6.9166,-6.9161,-6.9154,-6.9154,-6.9202,-6.9198,-6.9355,-6.9377,-6.9244,-6.9245,-6.9246,0,-6.8619,-6.8668,-6.8718,-6.8751,-6.8776,-6.8828,-6.8861,-6.8873,-6.8907,-6.8956,-6.8992,-6.9046,-6.909,-6.9176,-6.9198,-6.9246,-6.9242,-6.9294,-6.9249,-6.9248,-6.9244,-6.9241,-6.9246,-6.9302,-6.9304,-6.9305,-6.9306,0,-6.8731,-6.8739,-6.8788,-6.8842,-6.8883,-6.8925,-6.8965,-6.8991,-6.9009,-6.9047,-6.9104,-6.9139,-6.9205,-6.9259,-6.9309,-6.9329,-6.9321,-6.9321,-6.9334,-6.9334,-6.9329,-6.9333,-6.9178,-6.9316,-6.9315,-6.9315,-6.9314,-6.9314,-6.8808,-6.8852,-6.8895,-6.8951,-6.8983,-6.9022,-6.9065,-6.9087,-6.9136,-6.9193,-6.9197,-6.9258,-6.9297,-6.9363,-6.9388,-6.9435,-6.9419,-6.9439,-6.9444,-6.9449,-6.9454,-6.9322,-6.9444,-6.9444,-6.9443,-6.9443,-6.9443,0,-6.892,-6.8948,-6.9,-6.9058,-6.9102,-6.9094,-6.9138,-6.9175,-6.9231,-6.9268,-6.9313,-6.9379,-6.9432,-6.9459,-6.9511,-6.9544,-6.9541,-6.9557,-6.9554,-6.956,-6.9464,-6.9448,-6.9558,-6.9558,-6.9558,-6.9558,-6.9558,-6.9558,-6.8983,-6.9057,-6.9071,-6.9161,-6.9188,-6.9251,-6.9278,-6.9313,-6.9344,-6.9419,-6.9464,-6.9483,-6.9516,-6.9571,-6.9619,-6.9625,-6.9645,-6.9663,-6.9667,-6.9578,-6.9566,-6.9555,-6.9539,-6.9667,-6.9667,-6.9759,-6.9759,-6.976]}]]